User: anonymous   Login
Location: Mentone
(34.5413°N, 85.5351°W)
Time: 08:09:34
(UTC-06:00)
Language:

Vanguard 2 Rocket - Orbit

View from above orbital plane
View from above orbital plane
View from above satellite
View from above satellite

Ground track
Ground track

The orbit data is extracted from the following two-line orbital elements,

1 00012U 59001B   14326.15604972  .00000381  00000-0  21058-3 0  9584
2 00012 032.9059 265.6613 1671200 184.8828 173.3322 11.43450281289513
Epoch (UTC): 22 November 2014 03:44:42
Eccentricity: 0.1671200
inclination: 32.9059°
perigee height: 553 km
apogee height: 3335 km
right ascension of ascending node: 265.6613°
argument of perigee: 184.8828°
revolutions per day: 11.43450281
mean anomaly at epoch: 173.3322°
orbit number at epoch: 28951

The dashed part of the orbit path shows where the satellite is in the earth's shadow,  

DLR